15-09-2022, 00:00:00,    344,    0.0,   11.0,   0.00,   0.00, 1008.4,   73.9, -999.0
15-09-2022, 00:00:09,    344,    0.0,   11.1,   0.00,   0.00, 1008.5,   74.1, -999.0
15-09-2022, 00:00:19,    344,    0.0,   11.1,   0.00,   0.00, 1008.4,   74.0, -999.0
15-09-2022, 00:00:29,    343,    0.0,   11.1,   0.00,   0.00, 1008.4,   74.0, -999.0
15-09-2022, 00:00:39,    343,    0.0,   11.0,   0.00,   0.00, 1008.4,   74.2, -999.0
15-09-2022, 00:00:49,    343,    0.0,   11.1,   0.00,   0.00, 1008.4,   74.1, -999.0
15-09-2022, 00:00:59,    344,    0.0,   11.1,   0.00,   0.00, 1008.4,   74.1, -999.0
15-09-2022, 00:01:09,    343,    0.0,   11.2,   0.00,   0.00, 1008.4,   74.1, -999.0
15-09-2022, 00:01:19,    343,    0.0,   11.2,   0.00,   0.00, 1008.4,   74.1, -999.0
15-09-2022, 00:01:29,    343,    0.0,   11.2,   0.00,   0.00, 1008.4,   74.0, -999.0
15-09-2022, 00:01:39,    344,    0.0,   11.1,   0.00,   0.00, 1008.4,   73.9, -999.0
15-09-2022, 00:01:49,    344,    0.0,   11.2,   0.00,   0.00, 1008.4,   74.0, -999.0
15-09-2022, 00:01:59,    344,    0.0,   11.1,   0.00,   0.00, 1008.4,   73.9, -999.0
15-09-2022, 00:02:09,    344,    0.2,   11.3,   0.00,   0.00, 1008.5,   74.2, -999.0
15-09-2022, 00:02:18,    343,    0.0,   11.2,   0.00,   0.00, 1008.4,   74.0, -999.0
15-09-2022, 00:02:29,    344,    0.0,   11.1,   0.00,   0.00, 1008.4,   74.0, -999.0
15-09-2022, 00:02:39,    344,    0.0,   11.2,   0.00,   0.00, 1008.4,   73.9, -999.0
15-09-2022, 00:02:48,    343,    0.0,   11.2,   0.00,   0.00, 1008.4,   73.9, -999.0
15-09-2022, 00:02:58,    343,    0.0,   11.2,   0.00,   0.00, 1008.4,   74.0, -999.0
15-09-2022, 00:03:09,    344,    0.0,   11.2,   0.00,   0.00, 1008.4,   74.0, -999.0
15-09-2022, 00:03:18,    343,    0.0,   11.2,   0.00,   0.00, 1008.4,   74.0, -999.0
15-09-2022, 00:03:28,    343,    0.0,   11.2,   0.00,   0.00, 1008.4,   74.0, -999.0
15-09-2022, 00:03:38,    343,    0.0,   11.1,   0.00,   0.00, 1008.5,   73.9, -999.0
15-09-2022, 00:03:48,    344,    0.0,   11.1,   0.00,   0.00, 1008.5,   74.0, -999.0
15-09-2022, 00:03:58,    344,    0.0,   11.2,   0.00,   0.00, 1008.4,   74.1, -999.0
15-09-2022, 00:04:08,    343,    0.0,   11.2,   0.00,   0.00, 1008.5,   74.2, -999.0
15-09-2022, 00:04:18,    344,    0.0,   11.2,   0.00,   0.00, 1008.4,   74.1, -999.0
15-09-2022, 00:04:28,    343,    0.0,   11.2,   0.00,   0.00, 1008.4,   74.1, -999.0
15-09-2022, 00:04:38,    343,    0.0,   11.2,   0.00,   0.00, 1008.5,   74.2, -999.0
15-09-2022, 00:04:48,    343,    0.0,   11.2,   0.00,   0.00, 1008.4,   74.0, -999.0
15-09-2022, 00:04:58,    343,    0.0,   11.2,   0.00,   0.00, 1008.4,   73.9, -999.0
15-09-2022, 00:05:08,    343,    0.0,   11.2,   0.00,   0.00, 1008.4,   74.1, -999.0
15-09-2022, 00:05:18,    344,    0.0,   11.2,   0.00,   0.00, 1008.4,   74.1, -999.0
15-09-2022, 00:05:27,    344,    0.0,   11.2,   0.00,   0.00, 1008.4,   74.1, -999.0
15-09-2022, 00:05:38,    344,    0.0,   11.3,   0.00,   0.00, 1008.4,   74.1, -999.0
15-09-2022, 00:05:48,    343,    0.0,   11.2,   0.00,   0.00, 1008.4,   74.1, -999.0
15-09-2022, 00:05:57,    344,    0.0,   11.3,   0.00,   0.00, 1008.4,   74.1, -999.0
15-09-2022, 00:06:07,    343,    0.0,   11.2,   0.00,   0.00, 1008.4,   74.0, -999.0
15-09-2022, 00:06:17,    343,    0.0,   11.2,   0.00,   0.00, 1008.4,   74.1, -999.0
15-09-2022, 00:06:27,    344,    0.0,   11.2,   0.00,   0.00, 1008.4,   74.1, -999.0
15-09-2022, 00:06:37,    343,    0.0,   11.2,   0.00,   0.00, 1008.4,   74.1, -999.0
15-09-2022, 00:06:47,    343,    0.0,   11.2,   0.00,   0.00, 1008.4,   74.0, -999.0
15-09-2022, 00:06:57,    343,    0.0,   11.2,   0.00,   0.00, 1008.4,   74.0, -999.0
15-09-2022, 00:07:07,    344,    0.0,   11.1,   0.00,   0.00, 1008.4,   74.0, -999.0
15-09-2022, 00:07:17,    344,    0.0,   11.1,   0.00,   0.00, 1008.4,   74.2, -999.0
15-09-2022, 00:07:27,    343,    0.2,   11.2,   0.00,   0.00, 1008.5,   74.4, -999.0
15-09-2022, 00:07:37,    343,    0.0,   11.2,   0.00,   0.00, 1008.4,   74.3, -999.0
15-09-2022, 00:07:47,    343,    0.0,   11.2,   0.00,   0.00, 1008.4,   74.3, -999.0
15-09-2022, 00:07:57,    343,    0.0,   11.1,   0.00,   0.00, 1008.5,   74.4, -999.0
15-09-2022, 00:08:07,    344,    0.0,   11.1,   0.00,   0.00, 1008.4,   74.5, -999.0
15-09-2022, 00:08:17,    343,    0.0,   11.1,   0.00,   0.00, 1008.4,   74.4, -999.0
15-09-2022, 00:08:26,    343,    0.0,   11.2,   0.00,   0.00, 1008.4,   74.4, -999.0
15-09-2022, 00:08:36,    344,    0.0,   11.2,   0.00,   0.00, 1008.4,   74.4, -999.0
15-09-2022, 00:08:47,    344,    0.0,   11.2,   0.00,   0.00, 1008.4,   74.4, -999.0
15-09-2022, 00:08:56,    343,    0.0,   11.1,   0.00,   0.00, 1008.4,   74.5, -999.0
15-09-2022, 00:09:06,    343,    0.0,   11.2,   0.00,   0.00, 1008.5,   74.5, -999.0
15-09-2022, 00:09:17,    343,    0.0,   11.2,   0.00,   0.00, 1008.4,   74.6, -999.0
15-09-2022, 00:09:26,    344,    0.0,   11.2,   0.00,   0.00, 1008.4,   74.6, -999.0
15-09-2022, 00:09:36,    343,    0.0,   11.1,   0.00,   0.00, 1008.4,   74.6, -999.0
15-09-2022, 00:09:46,    343,    0.0,   11.1,   0.00,   0.00, 1008.4,   74.5, -999.0
15-09-2022, 00:09:56,    343,    0.0,   11.1,   0.00,   0.00, 1008.5,   74.5, -999.0
15-09-2022, 00:10:06,    343,    0.0,   11.1,   0.00,   0.00, 1008.5,   74.6, -999.0
15-09-2022, 00:10:16,    344,    0.0,   11.2,   0.00,   0.00, 1008.4,   74.6, -999.0
15-09-2022, 00:10:26,    343,    0.0,   11.1,   0.00,   0.00, 1008.4,   74.7, -999.0
15-09-2022, 00:10:36,    344,    0.0,   11.1,   0.00,   0.00, 1008.4,   74.6, -999.0
15-09-2022, 00:10:46,    343,    0.0,   11.1,   0.00,   0.00, 1008.4,   74.6, -999.0
15-09-2022, 00:10:56,    343,    0.0,   11.1,   0.00,   0.00, 1008.4,   74.7, -999.0
15-09-2022, 00:11:05,    343,    0.0,   11.1,   0.00,   0.00, 1008.4,   74.7, -999.0
15-09-2022, 00:11:16,    343,    0.0,   11.1,   0.00,   0.00, 1008.4,   74.7, -999.0
15-09-2022, 00:11:26,    344,    0.3,   11.1,   0.00,   0.00, 1008.5,   74.7, -999.0
15-09-2022, 00:11:35,    343,    0.5,   11.1,   0.00,   0.00, 1008.5,   75.0, -999.0
15-09-2022, 00:11:46,    343,    0.0,   11.1,   0.00,   0.00, 1008.4,   74.6, -999.0
15-09-2022, 00:11:56,    343,    0.0,   11.1,   0.00,   0.00, 1008.5,   74.7, -999.0
15-09-2022, 00:12:05,    343,    0.0,   11.1,   0.00,   0.00, 1008.4,   74.8, -999.0
15-09-2022, 00:12:15,    344,    0.0,   11.1,   0.00,   0.00, 1008.4,   74.7, -999.0
15-09-2022, 00:12:25,    344,    0.0,   11.1,   0.00,   0.00, 1008.4,   74.7, -999.0
15-09-2022, 00:12:35,    343,    0.0,   11.1,   0.00,   0.00, 1008.4,   74.8, -999.0
15-09-2022, 00:12:45,    343,    0.0,   11.1,   0.00,   0.00, 1008.4,   74.7, -999.0
15-09-2022, 00:12:55,    343,    0.0,   11.1,   0.00,   0.00, 1008.4,   74.7, -999.0
15-09-2022, 00:13:05,    343,    0.0,   11.0,   0.00,   0.00, 1008.4,   74.7, -999.0
15-09-2022, 00:13:15,    343,    0.0,   11.1,   0.00,   0.00, 1008.4,   74.7, -999.0
15-09-2022, 00:13:25,    343,    0.0,   11.2,   0.00,   0.00, 1008.4,   74.8, -999.0
15-09-2022, 00:13:35,    343,    0.0,   11.2,   0.00,   0.00, 1008.4,   74.7, -999.0
15-09-2022, 00:13:47,    343,    0.0,   11.1,   0.00,   0.00, 1008.4,   74.6, -999.0
15-09-2022, 00:13:55,    344,    0.0,   11.2,   0.00,   0.00, 1008.4,   74.6, -999.0
15-09-2022, 00:14:05,    343,    0.0,   11.2,   0.00,   0.00, 1008.4,   74.6, -999.0
15-09-2022, 00:14:15,    343,    0.0,   11.2,   0.00,   0.00, 1008.4,   74.7, -999.0
15-09-2022, 00:14:25,    343,    0.0,   11.1,   0.00,   0.00, 1008.4,   74.9, -999.0
15-09-2022, 00:14:34,    343,    0.0,   11.2,   0.00,   0.00, 1008.4,   74.9, -999.0
15-09-2022, 00:14:44,    343,    0.0,   11.2,   0.00,   0.00, 1008.4,   74.9, -999.0
15-09-2022, 00:14:57,    343,    0.0,   11.1,   0.00,   0.00, 1008.4,   75.0, -999.0
15-09-2022, 00:15:04,    343,    0.0,   11.1,   0.00,   0.00, 1008.4,   75.0, -999.0
15-09-2022, 00:15:14,    343,    0.0,   11.1,   0.00,   0.00, 1008.4,   74.9, -999.0
15-09-2022, 00:15:24,    343,    0.0,   11.1,   0.00,   0.00, 1008.4,   74.9, -999.0
15-09-2022, 00:15:34,    343,    0.0,   11.1,   0.00,   0.00, 1008.4,   74.9, -999.0
15-09-2022, 00:15:44,    343,    0.0,   11.1,   0.00,   0.00, 1008.4,   74.9, -999.0
15-09-2022, 00:15:54,    344,    0.0,   11.1,   0.00,   0.00, 1008.5,   74.9, -999.0
15-09-2022, 00:16:04,    343,    0.0,   11.1,   0.00,   0.00, 1008.5,   75.0, -999.0
15-09-2022, 00:16:14,    343,    0.0,   11.1,   0.00,   0.00, 1008.4,   75.0, -999.0
15-09-2022, 00:16:24,    343,    0.0,   11.1,   0.00,   0.00, 1008.5,   74.9, -999.0
15-09-2022, 00:16:34,    344,    0.0,   11.1,   0.00,   0.00, 1008.5,   74.9, -999.0
15-09-2022, 00:16:44,    344,    0.0,   11.1,   0.00,   0.00, 1008.4,   75.0, -999.0
15-09-2022, 00:16:54,    343,    0.0,   11.0,   0.00,   0.00, 1008.4,   75.0, -999.0
15-09-2022, 00:17:04,    344,    0.0,   11.1,   0.00,   0.00, 1008.4,   75.0, -999.0
15-09-2022, 00:17:13,    343,    0.0,   11.1,   0.00,   0.00, 1008.5,   75.0, -999.0
15-09-2022, 00:17:24,    343,    0.0,   11.1,   0.00,   0.00, 1008.4,   75.0, -999.0
15-09-2022, 00:17:34,    343,    0.0,   11.1,   0.00,   0.00, 1008.4,   74.9, -999.0
15-09-2022, 00:17:43,    344,    0.0,   11.1,   0.00,   0.00, 1008.4,   74.9, -999.0
15-09-2022, 00:17:53,    344,    0.0,   11.2,   0.00,   0.00, 1008.5,   75.0, -999.0
15-09-2022, 00:18:03,    343,    0.0,   11.1,   0.00,   0.00, 1008.4,   74.9, -999.0
15-09-2022, 00:18:13,    343,    0.0,   11.1,   0.00,   0.00, 1008.4,   75.0, -999.0
15-09-2022, 00:18:23,    343,    0.0,   11.1,   0.00,   0.00, 1008.5,   75.0, -999.0
15-09-2022, 00:18:33,    344,    0.0,   11.1,   0.00,   0.00, 1008.5,   75.1, -999.0
15-09-2022, 00:18:43,    344,    0.0,   11.2,   0.00,   0.00, 1008.4,   75.1, -999.0
15-09-2022, 00:18:53,    344,    0.0,   11.1,   0.00,   0.00, 1008.5,   75.0, -999.0
15-09-2022, 00:19:03,    344,    0.0,   11.1,   0.00,   0.00, 1008.4,   75.0, -999.0
15-09-2022, 00:19:13,    343,    0.0,   11.2,   0.00,   0.00, 1008.5,   75.1, -999.0
15-09-2022, 00:19:23,    344,    0.0,   11.1,   0.00,   0.00, 1008.5,   75.0, -999.0
15-09-2022, 00:19:33,    343,    0.0,   11.1,   0.00,   0.00, 1008.5,   75.0, -999.0
15-09-2022, 00:19:43,    344,    0.0,   11.2,   0.00,   0.00, 1008.4,   75.0, -999.0
15-09-2022, 00:19:53,    343,    0.0,   11.2,   0.00,   0.00, 1008.5,   75.0, -999.0
15-09-2022, 00:20:03,    343,    0.0,   11.1,   0.00,   0.00, 1008.5,   75.0, -999.0
15-09-2022, 00:20:13,    343,    0.0,   11.1,   0.00,   0.00, 1008.4,   75.0, -999.0
15-09-2022, 00:20:22,    343,    0.0,   11.1,   0.00,   0.00, 1008.4,   75.0, -999.0
15-09-2022, 00:20:33,    343,    0.0,   11.1,   0.00,   0.00, 1008.4,   75.0, -999.0
15-09-2022, 00:20:42,    343,    0.0,   11.2,   0.00,   0.00, 1008.4,   75.1, -999.0
15-09-2022, 00:20:52,    344,    0.0,   11.2,   0.00,   0.00, 1008.4,   75.0, -999.0
15-09-2022, 00:21:02,    343,    0.0,   11.1,   0.00,   0.00, 1008.4,   75.0, -999.0
15-09-2022, 00:21:12,    343,    0.0,   11.1,   0.00,   0.00, 1008.4,   75.0, -999.0
15-09-2022, 00:21:22,    344,    0.0,   11.2,   0.00,   0.00, 1008.4,   75.2, -999.0
15-09-2022, 00:21:32,    343,    0.0,   11.2,   0.00,   0.00, 1008.4,   75.1, -999.0
15-09-2022, 00:21:42,    343,    0.0,   11.1,   0.00,   0.00, 1008.4,   75.1, -999.0
15-09-2022, 00:21:52,    344,    0.0,   11.2,   0.00,   0.00, 1008.5,   75.2, -999.0
15-09-2022, 00:22:02,    343,    0.0,   11.1,   0.00,   0.00, 1008.4,   75.2, -999.0
15-09-2022, 00:22:12,    344,    0.0,   11.2,   0.00,   0.00, 1008.4,   75.1, -999.0
15-09-2022, 00:22:22,    343,    0.0,   11.0,   0.00,   0.00, 1008.4,   75.3, -999.0
15-09-2022, 00:22:32,    343,    0.0,   11.1,   0.00,   0.00, 1008.4,   75.2, -999.0
15-09-2022, 00:22:42,    343,    0.0,   11.2,   0.00,   0.00, 1008.4,   75.2, -999.0
15-09-2022, 00:22:52,    343,    0.0,   11.1,   0.00,   0.00, 1008.4,   75.2, -999.0
15-09-2022, 00:23:02,    344,    0.0,   11.1,   0.00,   0.00, 1008.4,   75.1, -999.0
15-09-2022, 00:23:12,    344,    0.0,   11.1,   0.00,   0.00, 1008.4,   75.1, -999.0
15-09-2022, 00:23:21,    343,    0.0,   11.1,   0.00,   0.00, 1008.3,   75.0, -999.0
15-09-2022, 00:23:31,    343,    0.0,   11.1,   0.00,   0.00, 1008.4,   74.9, -999.0
15-09-2022, 00:23:42,    344,    0.0,   11.0,   0.00,   0.00, 1008.4,   75.0, -999.0
15-09-2022, 00:23:51,    343,    0.0,   11.0,   0.00,   0.00, 1008.4,   75.1, -999.0
15-09-2022, 00:24:01,    343,    0.0,   11.0,   0.00,   0.00, 1008.4,   75.0, -999.0
15-09-2022, 00:24:11,    344,    0.0,   11.0,   0.00,   0.00, 1008.4,   75.1, -999.0
15-09-2022, 00:24:21,    339,    0.0,   11.0,   0.00,   0.00, 1008.4,   75.1, -999.0
15-09-2022, 00:24:31,    343,    0.0,   11.0,   0.00,   0.00, 1008.4,   75.1, -999.0
15-09-2022, 00:24:41,    343,    0.0,   11.0,   0.00,   0.00, 1008.4,   75.1, -999.0
15-09-2022, 00:24:51,    343,    0.0,   11.0,   0.00,   0.00, 1008.4,   75.2, -999.0
15-09-2022, 00:25:01,    343,    0.0,   11.0,   0.00,   0.00, 1008.4,   75.4, -999.0
15-09-2022, 00:25:11,    343,    0.0,   11.0,   0.00,   0.00, 1008.4,   75.5, -999.0
15-09-2022, 00:25:21,    343,    0.0,   11.0,   0.00,   0.00, 1008.4,   75.4, -999.0
15-09-2022, 00:25:31,    343,    0.0,   11.0,   0.00,   0.00, 1008.4,   75.4, -999.0
15-09-2022, 00:25:41,    343,    0.0,   11.0,   0.00,   0.00, 1008.4,   75.4, -999.0
15-09-2022, 00:25:51,    344,    0.0,   11.1,   0.00,   0.00, 1008.4,   75.3, -999.0
15-09-2022, 00:26:00,    343,    0.0,   11.0,   0.00,   0.00, 1008.4,   75.4, -999.0
15-09-2022, 00:26:11,    343,    0.0,   11.0,   0.00,   0.00, 1008.4,   75.4, -999.0
15-09-2022, 00:26:21,    343,    0.0,   11.0,   0.00,   0.00, 1008.4,   75.4, -999.0
15-09-2022, 00:26:30,    344,    0.0,   11.1,   0.00,   0.00, 1008.4,   75.5, -999.0
15-09-2022, 00:26:40,    344,    0.0,   11.1,   0.00,   0.00, 1008.5,   75.5, -999.0
15-09-2022, 00:26:50,    343,    0.0,   11.0,   0.00,   0.00, 1008.4,   75.5, -999.0
15-09-2022, 00:27:00,    343,    0.0,   11.1,   0.00,   0.00, 1008.4,   75.5, -999.0
15-09-2022, 00:27:10,    343,    0.0,   11.0,   0.00,   0.00, 1008.4,   75.4, -999.0
15-09-2022, 00:27:20,    344,    0.0,   11.0,   0.00,   0.00, 1008.4,   75.4, -999.0
15-09-2022, 00:27:30,    343,    0.0,   11.1,   0.00,   0.00, 1008.5,   75.4, -999.0
15-09-2022, 00:27:40,    344,    0.0,   11.1,   0.00,   0.00, 1008.4,   75.4, -999.0
15-09-2022, 00:27:50,    343,    0.0,   11.1,   0.00,   0.00, 1008.4,   75.4, -999.0
15-09-2022, 00:28:00,    344,    0.0,   11.0,   0.00,   0.00, 1008.5,   75.4, -999.0
15-09-2022, 00:28:10,    343,    0.0,   11.1,   0.00,   0.00, 1008.4,   75.3, -999.0
15-09-2022, 00:28:20,    344,    0.0,   11.1,   0.00,   0.00, 1008.5,   75.4, -999.0
15-09-2022, 00:28:30,    343,    0.0,   11.1,   0.00,   0.00, 1008.4,   75.3, -999.0
15-09-2022, 00:28:40,    343,    0.0,   11.1,   0.00,   0.00, 1008.4,   75.2, -999.0
15-09-2022, 00:28:50,    343,    0.0,   11.1,   0.00,   0.00, 1008.5,   75.2, -999.0
15-09-2022, 00:28:59,    343,    0.0,   11.2,   0.00,   0.00, 1008.5,   75.3, -999.0
15-09-2022, 00:29:09,    344,    0.0,   11.2,   0.00,   0.00, 1008.4,   75.3, -999.0
15-09-2022, 00:29:20,    343,    0.0,   11.2,   0.00,   0.00, 1008.5,   75.3, -999.0
15-09-2022, 00:29:29,    344,    0.0,   11.1,   0.00,   0.00, 1008.4,   75.4, -999.0
15-09-2022, 00:29:39,    343,    0.0,   11.1,   0.00,   0.00, 1008.5,   75.4, -999.0
15-09-2022, 00:29:49,    343,    0.0,   11.2,   0.00,   0.00, 1008.5,   75.4, -999.0
15-09-2022, 00:29:59,    344,    0.0,   11.0,   0.00,   0.00, 1008.4,   75.3, -999.0
15-09-2022, 00:30:09,    343,    0.0,   11.2,   0.00,   0.00, 1008.5,   75.3, -999.0
15-09-2022, 00:30:19,    344,    0.0,   11.1,   0.00,   0.00, 1008.4,   75.2, -999.0
15-09-2022, 00:30:29,    343,    0.0,   11.1,   0.00,   0.00, 1008.5,   75.1, -999.0
15-09-2022, 00:30:39,    343,    0.0,   11.1,   0.00,   0.00, 1008.4,   75.2, -999.0
15-09-2022, 00:30:49,    344,    0.0,   11.1,   0.00,   0.00, 1008.4,   75.2, -999.0
15-09-2022, 00:30:59,    343,    0.0,   11.1,   0.00,   0.00, 1008.5,   75.3, -999.0
15-09-2022, 00:31:09,    344,    0.0,   11.1,   0.00,   0.00, 1008.4,   75.3, -999.0
15-09-2022, 00:31:19,    344,    0.0,   11.2,   0.00,   0.00, 1008.4,   75.3, -999.0
15-09-2022, 00:31:29,    343,    0.0,   11.1,   0.00,   0.00, 1008.4,   75.3, -999.0
15-09-2022, 00:31:38,    343,    0.0,   11.1,   0.00,   0.00, 1008.4,   75.2, -999.0
15-09-2022, 00:31:49,    344,    0.0,   11.1,   0.00,   0.00, 1008.4,   75.3, -999.0
15-09-2022, 00:31:59,    343,    0.0,   11.1,   0.00,   0.00, 1008.4,   75.4, -999.0
15-09-2022, 00:32:08,    343,    0.0,   11.1,   0.00,   0.00, 1008.4,   75.5, -999.0
15-09-2022, 00:32:19,    343,    0.0,   11.1,   0.00,   0.00, 1008.4,   75.4, -999.0
15-09-2022, 00:32:28,    343,    0.0,   11.1,   0.00,   0.00, 1008.5,   75.4, -999.0
15-09-2022, 00:32:38,    344,    0.0,   11.0,   0.00,   0.00, 1008.4,   75.5, -999.0
15-09-2022, 00:32:48,    344,    0.0,   11.1,   0.00,   0.00, 1008.5,   75.4, -999.0
15-09-2022, 00:32:58,    344,    0.0,   11.2,   0.00,   0.00, 1008.4,   75.4, -999.0
15-09-2022, 00:33:08,    344,    0.0,   11.1,   0.00,   0.00, 1008.4,   75.5, -999.0
15-09-2022, 00:33:18,    344,    0.0,   11.2,   0.00,   0.00, 1008.5,   75.4, -999.0
15-09-2022, 00:33:28,    344,    0.0,   11.2,   0.00,   0.00, 1008.4,   75.3, -999.0
15-09-2022, 00:33:38,    343,    0.0,   11.1,   0.00,   0.00, 1008.4,   75.3, -999.0
15-09-2022, 00:33:48,    344,    0.0,   11.2,   0.00,   0.00, 1008.4,   75.3, -999.0
15-09-2022, 00:33:58,    343,    0.0,   11.2,   0.00,   0.00, 1008.4,   75.3, -999.0
15-09-2022, 00:34:08,    343,    0.0,   11.2,   0.00,   0.00, 1008.4,   75.3, -999.0
15-09-2022, 00:34:18,    344,    0.0,   11.1,   0.00,   0.00, 1008.5,   75.2, -999.0
15-09-2022, 00:34:28,    343,    0.0,   11.1,   0.00,   0.00, 1008.5,   75.1, -999.0
15-09-2022, 00:34:37,    343,    0.0,   11.2,   0.00,   0.00, 1008.4,   75.2, -999.0
15-09-2022, 00:34:48,    343,    0.0,   11.2,   0.00,   0.00, 1008.5,   75.3, -999.0
15-09-2022, 00:34:58,    343,    0.0,   11.2,   0.00,   0.00, 1008.5,   75.3, -999.0
15-09-2022, 00:35:07,    343,    0.0,   11.2,   0.00,   0.00, 1008.5,   75.3, -999.0
15-09-2022, 00:35:17,    343,    0.0,   11.2,   0.00,   0.00, 1008.5,   75.4, -999.0
15-09-2022, 00:35:28,    343,    0.0,   11.1,   0.00,   0.00, 1008.5,   75.2, -999.0
15-09-2022, 00:35:37,    343,    0.0,   11.2,   0.00,   0.00, 1008.5,   75.3, -999.0
15-09-2022, 00:35:47,    343,    0.0,   11.2,   0.00,   0.00, 1008.5,   75.3, -999.0
15-09-2022, 00:35:57,    343,    0.0,   11.2,   0.00,   0.00, 1008.5,   75.2, -999.0
15-09-2022, 00:36:07,    343,    0.0,   11.2,   0.00,   0.00, 1008.4,   75.3, -999.0
15-09-2022, 00:36:17,    343,    0.0,   11.2,   0.00,   0.00, 1008.5,   75.2, -999.0
15-09-2022, 00:36:27,    343,    0.0,   11.2,   0.00,   0.00, 1008.5,   75.2, -999.0
15-09-2022, 00:36:37,    344,    0.0,   11.2,   0.00,   0.00, 1008.5,   75.3, -999.0
15-09-2022, 00:36:47,    343,    0.0,   11.2,   0.00,   0.00, 1008.5,   75.3, -999.0
15-09-2022, 00:36:57,    344,    0.0,   11.2,   0.00,   0.00, 1008.5,   75.4, -999.0
15-09-2022, 00:37:07,    344,    0.0,   11.2,   0.00,   0.00, 1008.5,   75.2, -999.0
15-09-2022, 00:37:17,    343,    0.0,   11.2,   0.00,   0.00, 1008.5,   75.2, -999.0
15-09-2022, 00:37:27,    343,    0.0,   11.2,   0.00,   0.00, 1008.5,   75.3, -999.0
15-09-2022, 00:37:37,    343,    0.0,   11.2,   0.00,   0.00, 1008.5,   75.5, -999.0
15-09-2022, 00:37:46,    343,    0.0,   11.2,   0.00,   0.00, 1008.5,   75.5, -999.0
15-09-2022, 00:37:57,    344,    0.0,   11.2,   0.00,   0.00, 1008.5,   75.5, -999.0
15-09-2022, 00:38:07,    344,    0.0,   11.2,   0.00,   0.00, 1008.5,   75.5, -999.0
15-09-2022, 00:38:16,    343,    0.0,   11.2,   0.00,   0.00, 1008.5,   75.4, -999.0
15-09-2022, 00:38:26,    344,    0.0,   11.2,   0.00,   0.00, 1008.5,   75.4, -999.0
15-09-2022, 00:38:36,    343,    0.0,   11.1,   0.00,   0.00, 1008.5,   75.5, -999.0
15-09-2022, 00:38:46,    343,    0.0,   11.2,   0.00,   0.00, 1008.5,   75.5, -999.0
15-09-2022, 00:38:56,    343,    0.0,   11.2,   0.00,   0.00, 1008.5,   75.5, -999.0
15-09-2022, 00:39:06,    343,    0.0,   11.2,   0.00,   0.00, 1008.5,   75.5, -999.0
15-09-2022, 00:39:16,    343,    0.0,   11.1,   0.00,   0.00, 1008.5,   75.6, -999.0
15-09-2022, 00:39:26,    343,    0.0,   11.2,   0.00,   0.00, 1008.5,   75.5, -999.0
15-09-2022, 00:39:36,    344,    0.0,   11.2,   0.00,   0.00, 1008.5,   75.5, -999.0
15-09-2022, 00:39:46,    343,    0.0,   11.0,   0.00,   0.00, 1008.5,   75.4, -999.0
15-09-2022, 00:39:56,    343,    0.0,   11.1,   0.00,   0.00, 1008.5,   75.4, -999.0
15-09-2022, 00:40:06,    344,    0.0,   11.1,   0.00,   0.00, 1008.5,   75.4, -999.0
15-09-2022, 00:40:16,    343,    0.0,   11.1,   0.00,   0.00, 1008.5,   75.5, -999.0
15-09-2022, 00:40:26,    343,    0.0,   10.9,   0.00,   0.00, 1008.5,   75.6, -999.0
15-09-2022, 00:40:36,    344,    0.0,   11.1,   0.00,   0.00, 1008.5,   75.5, -999.0
15-09-2022, 00:40:45,    343,    0.0,   11.1,   0.00,   0.00, 1008.5,   75.5, -999.0
15-09-2022, 00:40:55,    343,    0.0,   11.1,   0.00,   0.00, 1008.5,   75.5, -999.0
15-09-2022, 00:41:06,    343,    0.0,   11.1,   0.00,   0.00, 1008.5,   75.6, -999.0
15-09-2022, 00:41:15,    343,    0.0,   11.1,   0.00,   0.00, 1008.5,   75.7, -999.0
15-09-2022, 00:41:25,    344,    0.0,   11.1,   0.00,   0.00, 1008.5,   75.7, -999.0
15-09-2022, 00:41:35,    343,    0.0,   11.1,   0.00,   0.00, 1008.5,   75.7, -999.0
15-09-2022, 00:41:45,    344,    0.0,   11.1,   0.00,   0.00, 1008.5,   75.6, -999.0
15-09-2022, 00:41:55,    344,    0.0,   11.1,   0.00,   0.00, 1008.5,   75.7, -999.0
15-09-2022, 00:42:05,    344,    0.0,   11.1,   0.00,   0.00, 1008.5,   75.6, -999.0
15-09-2022, 00:42:15,    343,    0.0,   11.0,   0.00,   0.00, 1008.5,   75.7, -999.0
15-09-2022, 00:42:25,    344,    0.0,   11.0,   0.00,   0.00, 1008.5,   75.7, -999.0
15-09-2022, 00:42:35,    343,    0.0,   11.1,   0.00,   0.00, 1008.6,   75.8, -999.0
15-09-2022, 00:42:45,    343,    0.0,   11.1,   0.00,   0.00, 1008.5,   75.9, -999.0
15-09-2022, 00:42:55,    343,    0.0,   11.0,   0.00,   0.00, 1008.5,   75.7, -999.0
15-09-2022, 00:43:05,    343,    0.0,   11.1,   0.00,   0.00, 1008.5,   75.9, -999.0
15-09-2022, 00:43:15,    343,    0.0,   11.1,   0.00,   0.00, 1008.5,   75.8, -999.0
15-09-2022, 00:43:24,    344,    0.0,   11.1,   0.00,   0.00, 1008.5,   75.9, -999.0
15-09-2022, 00:43:35,    343,    0.0,   11.1,   0.00,   0.00, 1008.5,   75.9, -999.0
15-09-2022, 00:43:45,    343,    0.0,   11.1,   0.00,   0.00, 1008.5,   75.9, -999.0
15-09-2022, 00:43:54,    344,    0.0,   11.1,   0.00,   0.00, 1008.5,   75.9, -999.0
15-09-2022, 00:44:04,    343,    0.0,   11.1,   0.00,   0.00, 1008.5,   75.9, -999.0
15-09-2022, 00:44:15,    343,    0.0,   11.1,   0.00,   0.00, 1008.5,   75.9, -999.0
15-09-2022, 00:44:24,    344,    0.0,   11.1,   0.00,   0.00, 1008.5,   75.8, -999.0
15-09-2022, 00:44:34,    343,    0.0,   11.1,   0.00,   0.00, 1008.5,   75.8, -999.0
15-09-2022, 00:44:44,    344,    0.0,   11.1,   0.00,   0.00, 1008.5,   75.8, -999.0
15-09-2022, 00:44:54,    343,    0.0,   11.2,   0.00,   0.00, 1008.5,   75.9, -999.0
15-09-2022, 00:45:04,    343,    0.0,   11.1,   0.00,   0.00, 1008.6,   75.9, -999.0
15-09-2022, 00:45:14,    343,    0.0,   11.1,   0.00,   0.00, 1008.5,   75.9, -999.0
15-09-2022, 00:45:24,    343,    0.0,   11.2,   0.00,   0.00, 1008.6,   75.9, -999.0
15-09-2022, 00:45:34,    343,    0.0,   11.1,   0.00,   0.00, 1008.5,   75.9, -999.0
15-09-2022, 00:45:44,    343,    0.0,   11.1,   0.00,   0.00, 1008.5,   75.9, -999.0
15-09-2022, 00:45:54,    343,    0.0,   11.1,   0.00,   0.00, 1008.5,   75.7, -999.0
15-09-2022, 00:46:04,    343,    0.0,   11.1,   0.00,   0.00, 1008.5,   75.6, -999.0
15-09-2022, 00:46:14,    343,    0.0,   11.1,   0.00,   0.00, 1008.5,   75.7, -999.0
15-09-2022, 00:46:24,    337,    0.0,   11.2,   0.00,   0.00, 1008.6,   75.9, -999.0
15-09-2022, 00:46:33,    343,    0.0,   11.2,   0.00,   0.00, 1008.5,   75.8, -999.0